Regional Weather Roundup
Issued by NWS

Home | Current Version | Previous Version | Text Only | Print | Product List | Glossary On
Versions: 1 2 3 4 5 6 7 8 9 10 11 12 13 14 15 16 17 18 19 20 21 22 23 24 25 26 27 28 29 30 31 32 33 34 35 36 37 38 39 40 41 42 43 44 45 46 47 48 49 50
000
ASUS43 KMKX 290424
RWRWI

WISCONSIN REGIONAL WEATHER ROUNDUP
NATIONAL WEATHER SERVICE MILWAUKEE/SULLIVAN WI
1000 PM CST WED JAN 28 2015

NOTE: "FAIR" INDICATES FEW OR NO CLOUDS BELOW 12,000 FEET WITH NO
SIGNIFICANT WEATHER AND/OR OBSTRUCTIONS TO VISIBILITY.

WIZ001-002-006>008-014>016-023>028-290500-
NORTHWEST WISCONSIN

CITY           SKY/WX    TMP DP  RH WIND       PRES   REMARKS
SUPERIOR ARPT  CLOUDY    30  26  86 W5        29.85S FOG     WCI  25
ASHLAND        CLOUDY    29  25  85 S8        29.84F WCI  21
HAYWARD        FOG       27  25  92 CALM      29.82S VSB 3/4
SIREN          CLOUDY    29  29  99 CALM      29.84S FOG
CUMBERLAND     FOG       27  27 100 CALM      29.81F VSB 1
RICE LAKE      CLOUDY    28  25  88 CALM      29.83F FOG
CHETEK         CLOUDY    28  25  87 CALM      29.82F
LADYSMITH      CLOUDY    27  24  86 CALM      29.83F
EAU CLAIRE     CLOUDY    29  23  78 CALM      29.81F
MENOMONIE      CLOUDY    30  26  86 CALM      29.82F FOG
NEW RICHMOND   CLOUDY    29  29 100 CALM      29.83S FOG
OSCEOLA        FOG       30  30 100 NW3       29.86S VSB 1
$$

WIZ003>005-009-010-017-018-290500-
NORTH CENTRAL WISCONSIN

CITY           SKY/WX    TMP DP  RH WIND       PRES   REMARKS
MANITOWISH WTR CLOUDY    26  21  80 S6        29.79F WCI  19
ARBOR VITAE    CLOUDY    29  22  77 S5        29.80F WCI  24
WOODRUFF       CLOUDY    29  22  77 S5        29.80F WCI  24
RHINELANDER    CLOUDY    26  20  77 S7        29.81F WCI  18
EAGLE RIVER    CLOUDY    26  20  76 S3        29.80F
LAND O LAKES   CLOUDY    28  22  78 CALM      29.81F
PHILLIPS       CLOUDY    27  21  77 S6        29.79F WCI  20
TOMAHAWK       CLOUDY    26  20  78 CALM      29.81F
MEDFORD        CLOUDY    26  21  80 S7        29.80F WCI  18
MERRILL        CLOUDY    27  22  79 S3        29.81F
$$

WIZ029-030-035-036-043>047-290500-
CENTRAL WISCONSIN

CITY           SKY/WX    TMP DP  RH WIND       PRES   REMARKS
WAUSAU         CLOUDY    27  21  78 SE8       29.81F WCI  19
MOSINEE        CLOUDY    28  23  80 E5        29.83F WCI  23
MARSHFIELD     CLOUDY    28  21  75 E5        29.81F WCI  23
STEVENS POINT  CLOUDY    26  20  78 E3        29.84S
WAUPACA        CLOUDY    30  23  74 E6        29.85F WCI  24
WAUTOMA        CLOUDY    30  22  72 CALM      29.84F
WISC RAPIDS    CLOUDY    28  20  71 E5        29.84F WCI  23
CAMP DOUGLAS   CLOUDY    30  28  93 NE5       29.81F WCI  25
$$

WIZ011>013-019>022-031-037>040-048>050-290500-
NORTHEAST WISCONSIN

CITY           SKY/WX    TMP DP  RH WIND       PRES   REMARKS
ANTIGO         CLOUDY    25  22  87 S10       29.82F WCI  15
SHAWANO        CLOUDY    32  25  76 SE3       29.87F
OCONTO         CLOUDY    31  24  78 MISG      29.88F
STURGEON BAY   CLOUDY    32  21  64 S16G23    29.89F WCI  21
GREEN BAY      CLOUDY    31  25  78 SE10      29.88F WCI  22
MANITOWOC      CLOUDY    33  26  75 S15G22    29.89F WCI  23
APPLETON       CLOUDY    30  23  74 SE8       29.86F WCI  23
CLINTONVILLE   CLOUDY    30  23  74 CALM      29.86F
OSHKOSH        CLOUDY    31  22  69 SE7       29.85F WCI  24
$$

WIZ032>034-041-042-053>061-290500-
SOUTHWEST WISCONSIN

CITY           SKY/WX    TMP DP  RH WIND       PRES   REMARKS
LA CROSSE      CLOUDY    33  26  75 SE3       29.80F
SPARTA         CLOUDY    32  26  79 E3        29.82S
VIROQUA        CLOUDY    31  28  90 SE3       29.77F
BOSCOBEL       CLOUDY    34  27  75 VRB3      29.79F
PRAIRIE DU CHI PTCLDY    32  27  81 E5        29.77F WCI  27
PLATTEVILLE    MOCLDY    32  30  91 E10       29.76F WCI  24
$$

WIZ056-057-062-063-064-067-068-290500-
SOUTH CENTRAL WISCONSIN

CITY           SKY/WX    TMP DP  RH WIND       PRES   REMARKS
REEDSBURG      CLOUDY    32  27  83 S3        29.80S
BARABOO/DELLS  CLOUDY    31  26  81 S8        29.80S WCI  24
LONE ROCK      CLOUDY    33  27  78 SE8       29.79F WCI  26
MINERAL POINT  CLOUDY    32  30  93 SE10      29.75F WCI  24
MADISON        CLOUDY    32  24  72 S15       29.81F WCI  22
MIDDLETON      CLOUDY    33  26  75 S9G16     29.80F WCI  26
WATERTOWN      CLOUDY    31  23  73 SE6       29.84F WCI  25
MONROE         CLOUDY    32  28  86 SE15G21   29.78F WCI  22
JANESVILLE     CLOUDY    34  25  69 S15       29.81F WCI  24
$$

WIZ051-052-058>065-066-070>072-290500-
SOUTHEAST WISCONSIN

CITY           SKY/WX    TMP DP  RH WIND       PRES   REMARKS
MILWAUKEE      CLOUDY    32  22  66 S10       29.87F WCI  24
WAUKESHA       CLOUDY    30  23  74 SE9       29.86F WCI  22
MILWAUKEE/TIMM CLOUDY    32  21  64 S9        29.88F WCI  24
RACINE         CLOUDY    32  24  72 S15G23    29.90F WCI  22
BURLINGTON     CLOUDY    30  21  67 SE8       29.85F WCI  23
KENOSHA        CLOUDY    32  21  64 S9        29.88F WCI  24
FOND DU LAC    CLOUDY    30  22  72 S12       29.84F WCI  20
SHEBOYGAN      CLOUDY    32  24  72 S16       29.87F WCI  21
WEST BEND      CLOUDY    32  21  64 SE7       29.85F WCI  26
JUNEAU         CLOUDY    29  23  76 SE10      29.84F WCI  20
$$

LSZ147-162-290500-
LAKE SUPERIOR

STATION/POSITION TIME  TEMP    WIND        PRES    WAVE
                       AIR SEA DIR/SP/G            HT/PER
                 (UTC) (F)     (DEG/KT/KT) (MB)    (FT/S)
DEVILS ISLAND    0400   31     250/  9/ 10 1010.9F
PORT WING        0340   30     220/  3/  5 1010.8F
SAXON HARBOR     0300   32     220/  3/  8 1011.2S
$$

LMZ867-665-643>646-290500-
LAKE MICHIGAN

STATION/POSITION TIME  TEMP    WIND        PRES    WAVE
                       AIR SEA DIR/SP/G            HT/PER
                 (UTC) (F)     (DEG/KT/KT) (MB)    (FT/S)
NORTHPORT PIER   0311   31     150/ 10/ 22 1013.9F
SISTER BAY       0328   32     140/ 12/ 15   N/A
KEWAUNEE LAKESHO 0200          170/ 22/ 28 1013.0F
SHEBOYGAN LAKESH 0400   34     170/ 26/ 30 1012.3F
PORT WASHINGTON  0400   34     180/ 20     1012.5F
MILWAUKEE LAKESH 0400   33     170/ 16/ 18   N/A
KENOSHA   LAKESH 0400   33     160/ 16/ 17 1011.9F
$$

TC  - TEMPERATURE IN CELSIUS
VSB - VISIBILITY IN STATUTE MILES
WCI - WIND CHILL INDEX
HX  - HEAT INDEX




USA.gov is the U.S. government's official web portal to all federal, state and local government web resources and services.